FENGYUN 1C DEB, 30052

Orbit data source: Space-Track

FENGYUN 1C DEB, 30052 is space debris in SSO originally from a launch on Mon, 10 May 1999 UTC launched from the Taiyaun Space Center, China (TSC). Fengyun 1C debris stems from the Chinese weather satellite Fengyun-1C, which was intentionally destroyed by a Chinese anti-satellite missile in 2007. This event dramatically increased the amount of space debris, with thousands of trackable fragments posing hazards to satellites and human spaceflight. The Fengyun 1C debris cloud has become a focal point in discussions about space sustainability and the need for international regulations to prevent the creation of new debris.

Loading next visibility...
Identifier
30052, 1999-025PD
Orbit
SSO
Country
Flag of CNCN / PRC
Related business
Manufacturer
Unknown
Mission
Spacecraft
Bus & Motor
Unknown
Mass
Unknown
Launch date (UTC)
1999-05-10 (27 years ago)
Launch vehicle
Unknown
Launch site
Taiyaun Space Center, China (TSC)
Object type
Payload
Rocket body
Debris
Shape & HBR
Unknown shape, 0.1 m
Radar Cross Section
Medium (>0.1 m² and <1 m²)

Expand to show TLE details & history
Last TLE update: 19 hours ago

TLE from 19 hours ago
0 FENGYUN 1C DEB
1 30052U 99025PD  26264.64133318  .00000292  00000-0  26846-3 0  9996
2 30052  99.2771 287.2097 0288366 210.5402 274.1509 13.73258297984375
Epoch: 2026-09-21T15:23Z
TLE epoch observation values (Epoch: 2026-09-21T15:23:31.186Z)
Latitude
57.50102°
Longitude
-109.41013°
Altitude
988.224 km
Speed
7.368 km/s
True Right ascension
08h 07m 57s
True Declination
57° 20' 59"
Sunlit
Object was in daylight at epoch
Visualization orbit readout
Latitude
Unknown
Longitude
Unknown
Altitude
Unknown
Speed
Unknown
Apparent Right ascension
Unknown
Apparent Declination
Unknown
Sunlit
N/A
Visualization observer readout
Local Sidereal Time
03:42:46
Azimuth
Unknown
Elevation
Unknown
Doppler factor
Unknown
Orbital elements
Apogee altitude
1,197.474 km
Perigee altitude
772.81 km
Semi-major axis
7,363.279 km
Eccentricity
0.02884
Inclination
99.2771°
RAAN
287.2097°
Arg. of periapsis
210.5402°
True anomaly
270.84835°
Mean anomaly
274.1509°
Eccentric anomaly
272.50026°
Mean motion
3.43508 °/min
Orbital period
104.8 mins
BSTAR
0.00026846
Loading maneuver chart data...
Computing Atmospheric mass density...

Documentation

Showing up to 5 results
|